Retour au catalogue

DELTA 1 DEB

ActifPO
NORAD 19365·DEBRIS·🇺🇸 United States

Lancé Jan 22, 1975 depuis Vandenberg Space Force Base

Loading…

Prochains Passages (prochaines 24 heures)

TLE

FraisSource: Space-Track

Époque: Sep 14, 2026, 06:15 UTC

1 19365U 75004HQ  26257.26047160  .00001000  00000-0  33203-3 0  9993
2 19365  97.7016 184.1159 0133062  69.3370 292.2026 14.34674565992488

Suivez DELTA 1 DEB en temps réel avec AllMySat

Download on the App Store